Regional Weather Roundup
Issued by NWS

Home | Current Version | Previous Version | Graphics & Text | Print | Product List | Glossary On
Versions: 1 2 3 4 5 6 7 8 9 10 11 12 13 14 15 16 17 18 19 20 21 22 23 24 25 26 27 28 29 30 31 32 33 34 35 36 37 38 39 40 41 42 43 44 45 46 47 48 49 50
000
ASUS43 KLOT 300012
RWRIL

ILLINOIS REGIONAL WEATHER ROUNDUP
NATIONAL WEATHER SERVICE CHICAGO/ROMEOVILLE IL
700 PM CDT WED JUL 29 2015

NOTE: "FAIR" INDICATES FEW OR NO CLOUDS BELOW 12,000 FEET WITH NO
SIGNIFICANT WEATHER AND/OR OBSTRUCTIONS TO VISIBILITY.

* THESE STATIONS ARE NOT UNDER NWS QUALITY CONTROL. THEY ALSO MAY NOT
  REPORT WEATHER SUCH AS PRECIPITATION OR FOG.

ILZ001-002-007-009-015-016-024-300100-
NORTHWEST ILLINOIS

CITY           SKY/WX    TMP DP  RH WIND       PRES   REMARKS
MOLINE         SUNNY     82  57  42 W13       30.03S HX  82
6HR MIN TEMP:  82; 6HR MAX TEMP:  86;

STERLING*      SUNNY     81  59  47 W9        30.00S HX  81
SAVANNA*       SUNNY     82  53  37 W8        30.01S HX  81
$$

ILZ003-004-008-010-011-017-018-300100-
NORTH CENTRAL ILLINOIS

CITY           SKY/WX    TMP DP  RH WIND       PRES   REMARKS
ROCKFORD       MOSUNNY   81  54  39 W12       30.00S HX  81
6HR MIN TEMP:  81; 6HR MAX TEMP:  86;

FREEPORT*      SUNNY     78  57  48 W8        30.02S
ROCHELLE*      SUNNY     79  59  50 W9        30.01S HX  80
DE KALB*       SUNNY     79  58  48 W14       30.01S HX  80
PERU*          SUNNY     79  58  48 W7        30.02S HX  80
$$

ILZ005-006-012>014-019>023-300100-
NORTHEAST ILLINOIS

CITY           SKY/WX    TMP DP  RH WIND       PRES   REMARKS
CHICAGO-OHARE  MOSUNNY   82  51  34 NW15      29.97R HX  81
6HR MIN TEMP:  82; 6HR MAX TEMP:  88;

CHICAGO-MIDWAY MOSUNNY   85  48  27 NW17G25   29.96S HX  82
6HR MIN TEMP:  85; 6HR MAX TEMP:  90;

AURORA         SUNNY     79  58  48 W10       30.00S HX  80
6HR MIN TEMP:  79; 6HR MAX TEMP:  84;

LANSING*       SUNNY     82  48  30 W13G20    29.97F HX  81
JOLIET*        SUNNY     82  58  44 W10G17    29.99S HX  82
WAUKEGAN       SUNNY     80  52  37 VRB5      29.95R HX  80
6HR MIN TEMP:  80; 6HR MAX TEMP:  84;

DUPAGE AIRPORT SUNNY     81  52  36 W14G22    29.98S HX  80
6HR MIN TEMP:  81; 6HR MAX TEMP:  86;

KANKAKEE*      SUNNY     80  62  52 W8        30.00S HX  81
WHEELING       SUNNY     83  49  30 W20G25    29.97S HX  81
6HR MIN TEMP:  82; 6HR MAX TEMP:  88;

MORRIS*        SUNNY     78  60  52 NW9       29.99S HX  80
ROMEOVILLE*    SUNNY     80  55  42 W10       29.99S HX  80
NORTHERLY ISL    N/A     83  49  30 W12         N/A  HX  81
$$

LMZ740>746-300100-
SOUTHERN LAKE MICHIGAN

STATION/POSITION SKY/WX   TEMP    WIND        PRES    VSBY  WAVE
                          AIR SEA DIR/SP/G                  HT/PER
                          (F)     (DEG/KT/KT) (MB)    (MI)  (FT/S)
HARRISON CRIB              83     270/ 20/ 24   N/A
BURNHAM HARBOR             83     290/ 10/ 16   N/A
CALUMET HARBOR             85     270/  7/ 12   N/A
BURNS HARBOR               83      30/  2/  3 1014.9S
MICHIGAN CITY              78     240/  3/  4   N/A
MICHIGAN CITY 6N           79 77  310/  6/  8   N/A           1
ST. JOSEPH                 78 76  350/ 12/ 12   N/A           1/ 2
$$

ILZ025>027-034>036-040-047-049-050-058-095>099-300100-
WEST-CENTRAL ILLINOIS

CITY           SKY/WX    TMP DP  RH WIND       PRES   REMARKS
QUINCY         SUNNY     80  60  50 NW6       30.08S HX  81
GALESBURG*     SUNNY     79  63  57 W5        30.06S HX  80
MACOMB*        SUNNY     80  61  52 NW5       30.08S HX  81
JACKSONVILLE*  SUNNY     81  62  53 NW6       30.07R HX  82
PITTSFIELD*    SUNNY     81  61  50 N3        30.09R HX  82
$$

ILZ028>032-037-038-041>044-048-051>054-059>061-300100-
CENTRAL ILLINOIS

CITY           SKY/WX    TMP DP  RH WIND       PRES   REMARKS
PONTIAC        SUNNY     79  63  58 W8        30.03R HX  80
BLOOMINGTON    SUNNY     81  58  45 NW15      30.06R HX  81
DECATUR        SUNNY     83  60  45 NW10      30.04R HX  83
PEORIA         SUNNY     82  58  43 NW6       30.04F HX  82
6HR MIN TEMP:  82; 6HR MAX TEMP:  87;

LACON*         SUNNY     80  58  48 NW5       30.02S HX  80
LINCOLN*       SUNNY     82  54  37 NW3       30.04R HX  81
SPRINGFIELD    SUNNY     83  58  42 NW8       30.05S HX  83
6HR MIN TEMP:  83; 6HR MAX TEMP:  90;

TAYLORVILLE    SUNNY     79  61  53 NW9       30.05R HX  80
$$

ILZ033-039-045-046-055>057-062-063-300100-
EAST-CENTRAL ILLINOIS

CITY           SKY/WX    TMP DP  RH WIND       PRES   REMARKS
CHAMPAIGN      MOSUNNY   80  63  55 NW9       30.03R HX  81
DANVILLE*      PTSUNNY   80  64  59 NW8       29.99R HX  81
RANTOUL*       MOSUNNY   82  63  52 NW10      30.02R HX  83
MATTOON        MOSUNNY   83  67  58 N13       30.02R HX  85
PARIS*         CLOUDY    83  71  67 NW7       30.02R HX  87
$$

ILZ079-100>102-300100-
SOUTHWEST ILLINOIS

CITY           SKY/WX    TMP DP  RH WIND       PRES   REMARKS
ALTON          MOSUNNY   81  64  57 N9        30.05R HX  82
BELLEVILLE     MOSUNNY   85  70  60 VRB7      30.03R HX  90
CAHOKIA*       MOSUNNY   87  62  43 N16G23    30.04R HX  87
SPARTA*        PTSUNNY   86  73  66 N12       30.02S HX  93
$$

ILZ064>066-069>071-074>076-080>082-084>086-088>090-092>094-300100-
SOUTH-CENTRAL ILLINOIS

CITY           SKY/WX    TMP DP  RH WIND       PRES   REMARKS
CARBONDALE     CLOUDY    87  76  69 N8        30.00R HX  97
6HR MIN TEMP:  85; 6HR MAX TEMP:  92; 6HR PCP:  0.04;

CAIRO*         PTSUNNY   85  77  78 N7        29.99R HX  95
EFFINGHAM*     MOSUNNY   84  64  50 NW7       30.03R HX  86
MARION         CLOUDY    86  77  74 NW3       30.01R HX  97
MT. VERNON     PTSUNNY   84  73  70 N3        30.01R HX  91
CENTRALIA*     MOSUNNY   85  71  61 NW9G16    30.02R HX  90
SALEM*         MOSUNNY   87  73  64 N10G16    30.01R HX  94
METROPOLIS*    CLOUDY    83  81  95 NW3       29.99R HX  96
$$

ILZ067-068-072-073-078-083-087-091-300100-
SOUTHEAST ILLINOIS

CITY           SKY/WX    TMP DP  RH WIND       PRES   REMARKS
LAWRENCEVILLE  CLOUDY    82  78  88 NW3       29.98R HX  91
FLORA*         CLOUDY    85  74  70 NW9       30.00R HX  93
FAIRFIELD*     PTSUNNY   85  76  74 N6        29.98R HX  95
HARRISBURG*    CLOUDY    86  77  75 NW3       30.00R HX  97
ROBINSON*      CLOUDY    84  76  76 NW8       29.99R HX  92
CARMI*         PTSUNNY   83  75  78 MISG      29.98R HX  90
$$

ABBREVIATIONS USED IN REMARKS
   TC - TEMPERATURE IN CELSIUS
  WCI - WIND CHILL INDEX
   HX - HEAT INDEX
  VSB - VISIBILITY
$$




USA.gov is the U.S. government's official web portal to all federal, state and local government web resources and services.